Home   Weather   19°41'N, 99°11'W   Past weeks
Flag for Mexico

Past Weather in 19°41'N, 99°11'W, Mexico — Yesterday and Last 2 Weeks

Now
77 °F

Scattered clouds.


Feels Like: 78 °F
Forecast: 79 / 57 °F
Wind: 6 mph from East

Location: Mexico City / Licenci

Current Time: Jun 20, 2019 at 2:20:21 pm

Latest Report: Jun 20, 2019 at 12:49 pm


Visibility: 5 mi

Pressure: 29.76 "Hg

Humidity: 42%

Dew Point: 52 °F

Location of 19°41'N, 99°11'WLocation

Past Weather in 19°41'N, 99°11'W — Graph

°F

19°41'N, 99°11'W Temperature Yesterday

Maximum temperature yesterday: 79 °F (at 1:47 pm)
Minimum temperature yesterday: 61 °F (at 1:45 am)
Average temperature yesterday: 67 °F

High & Low Weather Summary for the Past Weeks

 TemperatureHumidityPressure
High82 °F (Jun 8, 4:45 pm)100% (Jun 6, 1:04 am)30.48 "Hg (Jun 6, 1:04 am)
Low55 °F (Jun 9, 6:50 am)15% (Jun 10, 12:12 pm)29.54 "Hg (Jun 18, 6:45 pm)
Average67 °F59%30.17 "Hg
* Reported Jun 5 12:50 pm — Jun 20 12:49 pm, 19°41'N, 99°11'W. Weather by CustomWeather, © 2019

Note: Actual official high and low records may vary slightly from our data, if they occured in-between our weather recording intervals... More about our weather records

Advertising

19°41'N, 99°11'W Weather History for the Previous 24 Hours

Scroll right to see more
 ConditionsComfort  
Time TempWeatherWind HumidityBarometerVisibility
12:49 pm
Thu, Jun 20
77 °FScattered clouds.6 mph42%29.76 "Hg5 mi
12:27 pm75 °FScattered clouds.9 mph44%30.34 "Hg5 mi
11:45 am72 °FScattered clouds.6 mph53%30.35 "Hg5 mi
10:45 am70 °FScattered clouds.6 mph60%30.35 "Hg5 mi
9:45 am66 °FScattered clouds.8 mph64%29.85 "Hg6 mi
8:46 am63 °FScattered clouds.5 mph73%30.37 "Hg6 mi
7:45 am59 °FPartly sunny.8 mph77%30.36 "Hg6 mi
6:54 am59 °FPassing clouds.5 mph82%29.82 "Hg7 mi
5:41 am61 °FPassing clouds.5 mph77%30.33 "Hg8 mi
4:52 am59 °FPassing clouds.No wind82%30.32 "Hg8 mi
3:43 am57 °FPassing clouds.5 mph88%29.80 "Hg8 mi
2:49 am59 °FPassing clouds.7 mph82%30.32 "Hg8 mi
1:45 am61 °FPartly cloudy.8 mph77%30.34 "Hg8 mi
12:45 am63 °FPartly cloudy.7 mph64%29.78 "Hg8 mi
11:47 pm
Wed, Jun 19
63 °FPartly cloudy.7 mph64%30.35 "Hg8 mi
10:48 pm63 °FPartly cloudy.No wind68%30.35 "Hg8 mi
9:53 pm63 °FOvercast.8 mph73%29.88 "Hg8 mi
8:45 pm64 °FMostly cloudy.9 mph64%30.33 "Hg7 mi
7:45 pm66 °FMostly cloudy.13 mph52%30.30 "Hg7 mi
6:45 pm73 °FCloudy.8 mph44%29.72 "Hg7 mi
5:45 pm75 °FMostly cloudy.6 mph39%30.25 "Hg7 mi
4:45 pm73 °FMostly cloudy.6 mph38%30.26 "Hg7 mi
4:35 pm72 °FMostly cloudy.6 mph50%30.25 "Hg7 mi
4:19 pm72 °FThunderstorms. Mostly cloudy.6 mph47%30.26 "Hg7 mi
3:47 pm72 °FThunderstorms. Mostly cloudy.12 mph47%29.78 "Hg7 mi
2:45 pm79 °FBroken clouds.6 mph32%30.29 "Hg7 mi
Weather by CustomWeather, © 2019

See weather overview